Preview of NWS' New Version of Forecast
This preview is not operational and should not be used for support decisions.

Regional Weather Roundup (RWR)

Issued by National Weather Service (NWS)

                            
000
ASCA42 TJSJ 190910
RWRPR 
PUERTO RICO/U.S. VIRGIN ISLANDS HOURLY WEATHER ROUNDUP
NATIONAL WEATHER SERVICE SAN JUAN PR
500 AM AST WED JUN 19 2019

PRZ001>002-007>008-010-191000-
PUERTO RICO
  
CITY           SKY/WX    TMP DP  RH WIND       PRES   REMARKS
SAN JUAN LMM   PTCLDY    81  75  83 E8        30.06S                  
CEIBA          CLOUDY    82  75  78 E8        30.07F                  
$$

VIZ001>002-191000-
U.S. VIRGIN ISLANDS
  
CITY           SKY/WX    TMP DP  RH WIND       PRES   REMARKS
CHARLOTTE AMA  CLEAR     81  73  78 E12       30.06R                  
CHRISTIANSTED  CLOUDY    81  73  78 E12       30.06R                  
$$

HOURLY WEATHER ROUNDUP FOR THE NEWS MEDIA
  
CITY           SKY/WX    TMP DP  RH WIND       PRES   REMARKS
ORLANDO        FAIR      77  74  90 SW8       29.99S                  
NEW YORK       FOG       66  66 100 NE3       29.87  VSB 1/2          
NEWARK         CLOUDY    68  67  96 NE3       29.86F FOG              
CHICAGO        MOCLDY    63  57  81 SW3       29.80F                  
HARTFORD       CLOUDY    63  62  97 CALM      29.85S                  
BOSTON         CLOUDY    62  60  93 CALM      29.87S FOG              
DALLAS         TSTM      74  69  85 NW14      29.87R                  
PHILADELPHIA   CLOUDY    69  69 100 SW3       29.86S                  
LOS ANGELES    CLOUDY    65  58  78 W6        29.97F                  
WASHINGTON DC  MOCLDY    70  68  93 CALM      29.84F